[[{"header":{"parameterUnit":"m.s-1","parameterCategory":1,"la1":30.2991,"la2":30.254,"lo1":-89.0895,"lo2":-89.0444,"dy":0.0017,"dx":0.0017,"nx":28,"ny":28,"refTime":"2024-07-15T03:00:00:Z","depth":0,"parameterNumber":2,"parameterNumberName":"U-component_of_WINDS"},"data":[0,0,0,0,0,0,0,0,0,0,0,0,0,0,0,0,0,0,0,0,0,0,0,0,0,0,0,0,0,0,0,0,0,0,0,0,0,0,0,0,0,0,0,0,0,0,0,0,0,0,0,0,0,0,0,0,0,0,1.4246,1.4247,0,1.442,1.4422,1.4424,1.4419,1.4417,1.4415,1.4412,1.46,1.4607,1.4614,0,0,0,0,0,0,0,0,0,0,0,0,0,1.3914,1.392,1.4245,1.4247,1.425,1.442,1.4422,1.4424,1.442,1.4417,1.4414,1.4411,1.4597,1.4606,1.4614,0,0,0,0,0,0,0,0,0,0,0,0,0,1.407,1.3922,1.4245,1.4268,1.4271,1.4419,1.4422,1.4425,1.442,1.4417,1.4413,1.441,1.4594,1.4605,1.4616,1.4755,0,0,1.4649,1.4653,0,0,0,0,0,0,0,0,1.4061,1.4082,1.4262,1.4266,1.4271,1.4394,1.4374,1.4536,1.4421,1.4364,1.4412,1.4408,1.4535,1.455,1.4591,1.4764,1.4772,1.465,1.4656,1.4661,1.4664,0,0,0,0,0,0,0,1.4051,1.4075,1.4315,1.4265,1.427,1.4271,1.4289,1.4404,1.4468,1.4369,1.4369,1.4389,1.4536,1.4581,1.4595,1.4774,1.4649,1.4659,1.4666,1.467,1.5067,1.5071,0,0,0,0,0,0,1.4034,1.4066,1.4309,1.432,1.4155,1.428,1.43,1.4358,1.4466,1.4479,1.4392,1.4388,1.4564,1.4583,1.4602,1.477,1.4661,1.4671,1.4677,1.5063,1.5068,1.5072,0,0,0,0,0,0,1.4027,1.4056,1.4302,1.4193,1.4224,1.4289,1.4355,1.4364,1.4408,1.4484,1.4496,1.4425,1.4562,1.4587,1.4716,1.4777,1.4676,1.4686,1.5058,1.5065,1.507,1.5108,0,0,0,0,0,0,1.4017,1.4053,1.4106,1.4194,1.423,1.4411,1.4358,1.437,1.4425,1.4422,1.4518,1.4531,1.4561,1.4699,1.4726,1.479,1.4694,1.5053,1.5061,1.5068,1.5102,1.5115,1.5126,0,0,0,0,0,1.4005,1.4112,1.4108,1.4138,1.4297,1.4415,1.4435,1.4466,1.443,1.4484,1.4533,1.4528,1.4765,1.4713,1.4743,1.4811,1.5049,1.5059,1.5068,1.5097,1.5113,1.5126,0,0,0,0,0,0,1.4033,1.4124,1.4121,1.4259,1.4328,1.4413,1.4482,1.4482,1.4565,1.4559,1.4596,1.4617,1.4746,1.4791,1.4731,1.495,1.4903,1.4919,1.4915,1.4931,1.4942,1.4929,1.4703,0,0,0,0,0,1.4054,1.414,1.4216,1.433,1.4365,1.4417,1.447,1.4487,1.4562,1.4592,1.465,1.4725,1.4816,1.4876,1.4965,1.5108,1.5129,1.517,1.5182,1.5191,1.5205,1.5282,1.5301,1.5102,1.5102,1.5102,0,0,1.41,1.4161,1.4214,1.4337,1.4393,1.4482,1.4443,1.454,1.4607,1.4608,1.4731,1.4777,1.4863,1.4999,1.5062,1.5041,1.5264,1.5203,1.521,1.5218,1.5293,1.5312,1.5329,1.5108,1.5107,1.5106,0,0,1.423,1.4284,1.4384,1.444,1.4523,1.4557,1.4581,1.4666,1.4695,1.4819,1.482,1.4902,1.5059,1.5119,1.5171,1.5319,1.5318,1.5347,1.5411,1.5486,1.5501,1.5515,1.5567,1.5586,1.536,1.536,1.536,0,1.4277,1.441,1.4436,1.4532,1.4586,1.4587,1.4689,1.4743,1.4853,1.4891,1.4865,1.506,1.5118,1.5267,1.5303,1.5345,1.5373,1.5337,1.5496,1.5511,1.5524,1.5574,1.5594,1.5363,1.5363,1.5363,1.5362,0,1.4463,1.4555,1.4626,1.4727,1.479,1.4889,1.4931,1.4991,1.5002,1.5038,1.5164,1.5234,1.5335,1.5371,1.5385,1.5522,1.5506,1.5488,1.5442,1.5546,1.5593,1.5613,1.5368,1.5367,1.5366,1.5365,0,0,1.4616,1.4728,1.4754,1.4799,1.489,1.4963,1.5061,1.5157,1.5207,1.5282,1.5366,1.5497,1.548,1.5538,1.5558,1.5624,1.5735,1.5598,1.56,1.562,1.5889,1.5901,1.5923,1.5734,1.5738,1.5741,1.5881,0,1.4754,1.4926,1.4951,1.5103,1.5188,1.5189,1.5275,1.5341,1.5377,1.5456,1.5498,1.5589,1.556,1.5595,1.566,1.5707,1.5789,1.5698,1.5813,1.5817,1.579,1.5948,1.5962,1.6092,1.59,1.5903,1.5906,0,1.4938,1.5014,1.5173,1.525,1.5287,1.5363,1.5451,1.5526,1.5601,1.5623,1.5686,1.5697,1.58,1.5749,1.5892,1.5829,1.5878,1.5908,1.5914,1.5926,1.5867,1.5964,1.6134,1.6153,1.5935,1.5933,1.5931,0,1.5032,1.5174,1.5287,1.5326,1.5419,1.5472,1.5514,1.5585,1.564,1.5718,1.5754,1.5844,1.5894,1.5964,1.6,1.5959,1.614,1.6092,1.6161,1.616,1.62,1.6197,1.6379,1.6232,1.6232,1.6231,1.6231,0,1.5182,1.528,1.533,1.5399,1.5508,1.5537,1.5644,1.5685,1.5748,1.5826,1.5834,1.5908,1.595,1.6031,1.6059,1.6172,1.6195,1.6217,1.6223,1.6216,1.6213,1.6248,1.624,1.6236,1.6235,1.6234,1.6233,0,1.5306,1.5343,1.5466,1.5542,1.5564,1.5641,1.5707,1.5775,1.581,1.5909,1.5934,1.599,1.6085,1.6126,1.6245,1.6264,1.6393,1.6393,1.6366,1.6368,1.6435,1.6428,1.6647,1.6676,1.6509,1.6511,1.6512,0,1.5399,1.5473,1.5556,1.5607,1.5649,1.5733,1.5788,1.5819,1.5876,1.5965,1.6023,1.6116,1.6193,1.6345,1.6397,1.6487,1.649,1.656,1.6504,1.6493,1.649,1.6484,1.6492,1.6571,1.6572,1.6574,1.6575,0,1.556,1.5574,1.5651,1.5735,1.5799,1.5867,1.5934,1.5976,1.6018,1.6082,1.6177,1.6236,1.6354,1.6448,1.654,1.6585,1.6588,1.6591,1.6612,1.6605,1.6586,1.6596,1.6393,1.6587,1.6586,1.6585,1.6584,1.6584,1.5671,1.5735,1.5803,1.5889,1.5941,1.6002,1.6069,1.6111,1.619,1.6286,1.63,1.6401,1.6473,1.6597,1.6645,1.6726,1.6709,1.6739,1.6747,1.6754,1.6757,1.6573,1.6743,1.6743,1.6743,1.6742,1.6742,0,1.5831,1.5874,1.5952,1.6043,1.611,1.6102,1.6175,1.6233,1.632,1.6386,1.646,1.6568,1.6658,1.6716,1.6807,1.6861,1.6864,1.6884,1.688,1.689,1.6768,1.674,1.6879,1.6879,1.6879,1.6879,1.6879,1.6879,1.5922,1.6031,1.6052,1.6187,1.623,1.6327,1.6369,1.6426,1.6477,1.6597,1.667,1.6706,1.6769,1.6864,1.6947,1.6962,1.6995,1.7015,1.7029,1.6914,1.6899,1.6886,1.686,1.7022,1.7022,1.7145,1.7146,1.7147]},{"header":{"parameterUnit":"m.s-1","parameterCategory":1,"la1":30.2991,"la2":30.254,"lo1":-89.0895,"lo2":-89.0444,"dy":0.0017,"dx":0.0017,"nx":28,"ny":28,"refTime":"2024-07-15T03:00:00:Z","depth":0,"parameterNumber":3,"parameterNumberName":"V-component_of_WINDS"},"data":[0,0,0,0,0,0,0,0,0,0,0,0,0,0,0,0,0,0,0,0,0,0,0,0,0,0,0,0,0,0,0,0,0,0,0,0,0,0,0,0,0,0,0,0,0,0,0,0,0,0,0,0,0,0,0,0,0,0,2.5966,2.5964,0,2.5828,2.5826,2.5824,2.5664,2.5661,2.5659,2.5657,2.5512,2.551,2.5509,0,0,0,0,0,0,0,0,0,0,0,0,0,2.6089,2.6087,2.5966,2.5964,2.5963,2.5828,2.5826,2.5824,2.5664,2.5661,2.5658,2.5656,2.5512,2.5511,2.5509,0,0,0,0,0,0,0,0,0,0,0,0,0,2.6002,2.6087,2.5966,2.5867,2.5856,2.5828,2.5826,2.5823,2.5665,2.5661,2.5658,2.5654,2.5513,2.5511,2.5508,2.5566,0,0,2.5501,2.55,0,0,0,0,0,0,0,0,2.6007,2.5997,2.5883,2.5873,2.5862,2.5759,2.5816,2.5737,2.5666,2.5737,2.5657,2.5652,2.5597,2.5587,2.5569,2.5559,2.5553,2.5501,2.5499,2.5498,2.5498,0,0,0,0,0,0,0,2.6013,2.6002,2.5911,2.5882,2.5869,2.5828,2.5811,2.58,2.5689,2.5731,2.5719,2.5705,2.559,2.5572,2.5565,2.5551,2.5501,2.5499,2.5497,2.5496,2.5579,2.5583,0,0,0,0,0,0,2.6034,2.6008,2.5915,2.5907,2.5927,2.5829,2.581,2.5796,2.5689,2.5669,2.5708,2.5698,2.5578,2.5568,2.5559,2.5617,2.5498,2.5496,2.5495,2.5576,2.558,2.5584,0,0,0,0,0,0,2.6038,2.6028,2.5921,2.5954,2.5938,2.583,2.5815,2.5795,2.5776,2.5672,2.5651,2.571,2.5575,2.5562,2.5565,2.561,2.5495,2.5493,2.5571,2.5577,2.5582,2.5737,0,0,0,0,0,0,2.6042,2.603,2.6051,2.5956,2.5937,2.5931,2.5818,2.5795,2.5773,2.5758,2.5668,2.5649,2.5571,2.557,2.5563,2.5605,2.5491,2.5567,2.5574,2.558,2.5727,2.5747,2.5764,0,0,0,0,0,2.6047,2.61,2.6053,2.6043,2.5961,2.5934,2.5923,2.5832,2.5777,2.5797,2.573,2.5652,2.5607,2.5571,2.5562,2.5604,2.5563,2.5572,2.558,2.5719,2.5743,2.5763,0,0,0,0,0,0,2.6202,2.6086,2.6032,2.6057,2.6007,2.5907,2.5929,2.5861,2.5824,2.5812,2.5701,2.5681,2.5697,2.5651,2.5613,2.5653,2.5574,2.5581,2.5683,2.5705,2.5723,2.5732,2.5489,0,0,0,0,0,2.624,2.6228,2.6127,2.6158,2.6136,2.6038,2.6022,2.5957,2.59,2.5878,2.581,2.5757,2.5731,2.5715,2.5686,2.572,2.5697,2.5745,2.5763,2.5779,2.5785,2.5798,2.5817,2.5611,2.5611,2.5611,0,0,2.6316,2.6251,2.625,2.6187,2.6141,2.613,2.602,2.6014,2.6004,2.5876,2.5874,2.5824,2.5757,2.5776,2.578,2.5738,2.5837,2.5789,2.5802,2.58,2.5808,2.5828,2.5845,2.5616,2.5615,2.5614,0,0,2.6449,2.6401,2.642,2.6376,2.6307,2.6241,2.6247,2.6157,2.6119,2.6116,2.6019,2.6006,2.5963,2.5919,2.5891,2.6009,2.5935,2.6002,2.6097,2.6111,2.6127,2.614,2.618,2.6196,2.6009,2.601,2.601,0,2.6552,2.6533,2.6438,2.6438,2.6412,2.6297,2.6315,2.6277,2.6202,2.6186,2.614,2.6083,2.6031,2.6036,2.6065,2.6047,2.6048,2.6011,2.6132,2.6145,2.6157,2.6193,2.6208,2.6018,2.6017,2.6016,2.6016,0,2.6662,2.6651,2.6675,2.6606,2.6583,2.6592,2.6498,2.6486,2.6424,2.6363,2.636,2.6293,2.6247,2.6244,2.6183,2.6241,2.6216,2.6153,2.607,2.6186,2.6218,2.6232,2.603,2.6027,2.6025,2.6023,0,0,2.6887,2.6767,2.6777,2.6744,2.666,2.6648,2.6652,2.6608,2.6599,2.6552,2.655,2.6517,2.6458,2.6427,2.6359,2.6372,2.6467,2.6307,2.6303,2.6337,2.6524,2.657,2.6588,2.6419,2.6421,2.6423,2.6529,0,2.7003,2.7002,2.6917,2.694,2.6927,2.6819,2.6821,2.677,2.6713,2.6693,2.663,2.6608,2.6533,2.6513,2.6521,2.6454,2.6502,2.6445,2.6414,2.6414,2.6431,2.6605,2.6653,2.6756,2.6541,2.6543,2.6544,0,2.7137,2.7098,2.712,2.7035,2.7026,2.7031,2.6982,2.6966,2.6905,2.6862,2.6828,2.6752,2.6748,2.6672,2.6664,2.6627,2.6609,2.6574,2.6576,2.6567,2.6484,2.6598,2.6787,2.6802,2.6564,2.6562,2.6561,0,2.7296,2.7249,2.7255,2.7231,2.7133,2.7138,2.7097,2.7032,2.7011,2.6969,2.6954,2.6912,2.6889,2.6858,2.6772,2.6725,2.6772,2.669,2.6735,2.6737,2.6747,2.6747,2.6934,2.6742,2.6742,2.6741,2.6741,0,2.7432,2.7449,2.7325,2.7329,2.7344,2.7247,2.7264,2.7213,2.7157,2.7147,2.7052,2.7045,2.6933,2.6913,2.6846,2.6848,2.6839,2.6803,2.6784,2.681,2.6814,2.6795,2.6784,2.6745,2.6744,2.6744,2.6743,0,2.761,2.7528,2.7528,2.7436,2.7413,2.7428,2.7348,2.7347,2.7286,2.7275,2.7267,2.717,2.7141,2.7054,2.7003,2.6958,2.6979,2.6945,2.7,2.6987,2.7036,2.7032,2.7214,2.7232,2.7032,2.7034,2.7036,0,2.7701,2.7711,2.7621,2.7608,2.7572,2.7553,2.7531,2.7436,2.7416,2.7348,2.7355,2.7319,2.7285,2.7245,2.7169,2.7129,2.7092,2.7159,2.7085,2.711,2.709,2.7089,2.7089,2.7174,2.7177,2.7179,2.7181,0,2.787,2.7829,2.7802,2.7761,2.7737,2.77,2.7657,2.7652,2.7545,2.7528,2.7498,2.7473,2.7421,2.7386,2.7335,2.729,2.7217,2.7205,2.7213,2.7238,2.7267,2.7249,2.704,2.7201,2.7199,2.7197,2.7196,2.7195,2.8005,2.8008,2.7945,2.7918,2.7876,2.7838,2.7832,2.7771,2.7745,2.7696,2.7642,2.7618,2.7556,2.7479,2.7441,2.742,2.738,2.7393,2.7395,2.7399,2.741,2.7274,2.741,2.741,2.7409,2.7408,2.7408,0,2.8166,2.8121,2.8097,2.804,2.8018,2.7954,2.7903,2.7888,2.7869,2.7818,2.7787,2.7753,2.7719,2.7641,2.7599,2.7597,2.7562,2.7589,2.7586,2.7577,2.7449,2.7445,2.7618,2.7618,2.7618,2.7618,2.7618,2.7618,2.8247,2.825,2.8202,2.8183,2.8136,2.8113,2.809,2.8054,2.8012,2.7979,2.795,2.7901,2.7838,2.7791,2.7756,2.7734,2.7721,2.7759,2.7726,2.7606,2.7586,2.7567,2.7563,2.7758,2.7758,2.7855,2.7856,2.7857]}]]